Preview of NWS' New Version of Forecast
This preview is not operational and should not be used for support decisions.

Regional Weather Roundup (RWR)

Issued by National Weather Service (NWS)

                            
000
ASUS44 KMEG 212310
RWRTN 
TENNESSEE HOURLY STATE WEATHER ROUNDUP
NATIONAL WEATHER SERVICE MEMPHIS TN
600 PM CDT SAT SEP 21 2019

TNZ002-004-019-021-049-052-054-088>092-220000-
WEST TENNESSEE
  
CITY           SKY/WX    TMP DP  RH WIND       PRES   REMARKS
MEMPHIS INTL   FAIR      87  58  37 S12       30.11F                  
NWS MEMPHIS      N/A     89 N/A N/A MISG        N/A                   
JACKSON        FAIR      86  59  39 S6        30.13F                  
DYERSBURG      FAIR      87  60  40 CALM      30.12F                  
SOMERVILLE     SUNNY     86  57  37 VRB5      30.11F                  
UNION CITY     SUNNY     88  59  37 S9        30.09F                  
BOLIVAR        SUNNY     86  57  37 S6        30.12F                  
PARIS          CLEAR     86  57  37 SW8       30.13S                  
HUNTINGDON     CLEAR     86  59  39 SW7       30.13S                  
LEXINGTON      CLEAR     86  57  37 SW6       30.13S                  
SELMER         CLEAR     86  57  37 VRB3      30.14S                  
SAVANNAH       CLEAR     86  59  39 W3        30.14R                  
$$

TNZ008-025-027-028-033-062-065-066-220000-
NORTH MIDDLE TENNESSEE
  
CITY           SKY/WX    TMP DP  RH WIND       PRES   REMARKS
NASHVILLE      FAIR      87  51  28 S9        30.16S                  
DICKSON        CLEAR     86  52  30 S8        30.15S                  
PORTLAND       CLEAR     86  54  32 SW3       30.16S                  
CLARKSVILLE    FAIR      88  55  32 SW3       30.13F                  
LEBANON        CLEAR     86  50  28 SW10      30.14S                  
SMYRNA         FAIR      87  56  34 S5        30.17R                  
MURFREESBORO   CLEAR     86  52  30 S9        30.14S                  
COOKEVILLE     CLEAR     84  55  37 S6        30.18S                  
LIVINGSTON     CLEAR     84  54  34 CALM      30.19S                  
CROSSVILLE     FAIR      79  55  43 VRB3      30.25R                  
ROCKWOOD       CLEAR     81  57  44 CALM      30.23R                  
$$

TNZ061-075-076-078-094-096-097-220000-
SOUTH MIDDLE TENNESSEE
  
CITY           SKY/WX    TMP DP  RH WIND       PRES   REMARKS
LAWRENCEBURG   CLEAR     84  54  34 SE8       30.17R                  
LEWISBURG      CLEAR     86  54  32 S7        30.16R                  
FAYETTEVILLE   CLEAR     86  52  30 SW5       30.17S                  
TULLAHOMA      CLEAR     84  50  30 SW3       30.17S                  
WINCHESTER     CLEAR     86  50  28 SW5       30.18R                  
MCMINNVILLE    CLEAR     86  54  32 CALM      30.18S                  
COLUMBIA       CLEAR     86  52  30 SE5       30.14S                  
SHELBYVILLE    CLEAR     86  54  32 W5        30.17S                  
$$

TNZ017-018-042-046-047-220000-
NORTHEAST TENNESSEE
  
CITY           SKY/WX    TMP DP  RH WIND       PRES   REMARKS
TRI CITIES     FAIR      84  57  39 CALM      30.22S                  
ELIZABETHTON   FAIR      79  63  57 NW3       30.21S                  
GREENEVILLE    CLEAR     82  57  42 NE5       30.22R                  
$$

TNZ012-013-036-069-073-074-220000-
CENTRAL EAST TENNESSEE
  
CITY           SKY/WX    TMP DP  RH WIND       PRES   REMARKS
KNOXVILLE      FAIR      85  56  37 NW5       30.18S                  
OAK RIDGE      FAIR      86  56  35 S3        30.20S                  
DOWNTOWN KNOXV CLEAR     79  64  61 CALM      30.18S                  
GATLINBURG     PTCLDY    86  59  39 N3        30.18S                  
MORRISTOWN     CLEAR     82  57  42 CALM      30.20R                  
JACKSBORO      CLEAR     82  57  42 CALM      30.23S                  
$$

TNZ083-085-099-220000-
SOUTHEAST TENNESSEE
  
CITY           SKY/WX    TMP DP  RH WIND       PRES   REMARKS
CHATTANOOGA    FAIR      86  55  34 E5        30.18S                  
$$

SKY/WX REPORTED AS FAIR MEANS FEW OR NO CLOUDS BELOW
12 THOUSAND FEET.